Satellite-Ground Cal/Val Region Overpasses Predictions

Prediction of Satellite NPP Overpassing Cal/Val Region: PacNW

Region Location: (Latitude: 10.00, Longitude: 139.50) to (Latitude: 22.70, Longitude: 165.60).

Table of predicted overpasses for the next 14.0 days since TLE Epoch: 8/18/2013
Interval Starting Time Starting Location Ending Time Ending Location
1 08/18/2013 14:52:25 ( 22.68, 161.86) 08/18/2013 14:56:01 ( 10.00, 158.83)
2 08/19/2013 03:43:01 ( 10.04, 143.99) 08/19/2013 03:46:36 ( 22.65, 140.98)
3 08/19/2013 14:34:34 ( 18.57, 165.60) 08/19/2013 14:36:59 ( 10.05, 163.60)
4 08/19/2013 16:14:54 ( 22.67, 141.23) 08/19/2013 16:16:55 ( 15.57, 139.51)
5 08/20/2013 03:24:00 ( 10.04, 148.74) 08/20/2013 03:27:35 ( 22.66, 145.73)
6 08/20/2013 15:55:54 ( 22.66, 145.99) 08/20/2013 15:59:29 ( 10.04, 142.98)
7 08/21/2013 03:05:00 ( 10.05, 153.49) 08/21/2013 03:08:35 ( 22.67, 150.48)
8 08/21/2013 15:36:53 ( 22.65, 150.74) 08/21/2013 15:40:28 ( 10.03, 147.73)
9 08/22/2013 02:45:58 ( 10.01, 158.26) 08/22/2013 02:49:34 ( 22.68, 155.24)
10 08/22/2013 15:17:52 ( 22.70, 155.51) 08/22/2013 15:21:28 ( 10.02, 152.48)
11 08/23/2013 02:26:58 ( 10.02, 163.01) 08/23/2013 02:30:34 ( 22.69, 159.99)
12 08/23/2013 14:58:51 ( 22.69, 160.26) 08/23/2013 15:02:27 ( 10.01, 157.24)
13 08/24/2013 02:10:34 ( 19.25, 165.60) 08/24/2013 02:11:32 ( 22.65, 164.76)
14 08/24/2013 03:49:27 ( 10.03, 142.39) 08/24/2013 03:52:53 ( 22.12, 139.51)
15 08/24/2013 14:39:51 ( 22.67, 165.01) 08/24/2013 14:43:26 ( 10.05, 162.00)
16 08/24/2013 16:21:21 ( 22.67, 139.64) 08/24/2013 16:21:30 ( 22.15, 139.51)
17 08/25/2013 03:30:27 ( 10.04, 147.14) 08/25/2013 03:34:02 ( 22.66, 144.13)
18 08/25/2013 16:02:21 ( 22.66, 144.39) 08/25/2013 16:05:56 ( 10.04, 141.38)
19 08/26/2013 03:11:26 ( 10.05, 151.89) 08/26/2013 03:15:01 ( 22.67, 148.89)
20 08/26/2013 15:43:20 ( 22.65, 149.14) 08/26/2013 15:46:55 ( 10.03, 146.13)
21 08/27/2013 02:52:25 ( 10.01, 156.66) 08/27/2013 02:56:01 ( 22.68, 153.64)
22 08/27/2013 15:24:19 ( 22.69, 153.91) 08/27/2013 15:27:55 ( 10.01, 150.89)
23 08/28/2013 02:33:24 ( 10.02, 161.41) 08/28/2013 02:37:00 ( 22.70, 158.39)
24 08/28/2013 15:05:18 ( 22.68, 158.66) 08/28/2013 15:08:53 ( 10.06, 155.65)
25 08/29/2013 02:15:06 ( 12.50, 165.60) 08/29/2013 02:17:59 ( 22.65, 163.16)
26 08/29/2013 03:55:54 ( 10.04, 140.79) 08/29/2013 03:57:28 ( 15.56, 139.51)
27 08/29/2013 14:46:18 ( 22.66, 163.41) 08/29/2013 14:49:53 ( 10.04, 160.40)
28 08/30/2013 03:36:53 ( 10.05, 145.54) 08/30/2013 03:40:28 ( 22.67, 142.53)
29 08/30/2013 14:30:20 ( 11.91, 165.59) 08/30/2013 14:30:52 ( 10.02, 165.16)
30 08/30/2013 16:08:47 ( 22.64, 142.79) 08/30/2013 16:12:22 ( 10.02, 139.78)
31 08/31/2013 03:17:52 ( 10.01, 150.31) 08/31/2013 03:21:28 ( 22.69, 147.29)
32 08/31/2013 15:49:46 ( 22.69, 147.56) 08/31/2013 15:53:22 ( 10.01, 144.53)


NCC Satellite Cal/Val Overpasses Prediction Service
